Miscellaneous Local Product
Issued by NWS North Platte, NE

Home | Current Version | Previous Version | Graphics & Text | Print | Product List | Glossary On
Versions: 1 2 3 4 5 6 7 8 9 10 11 12 13 14 15 16 17 18 19 20 21 22 23 24 25 26 27 28 29 30 31 32 33 34 35 36 37 38 39 40 41 42 43 44 45 46 47 48 49 50
000
AXUS43 KLBF 232110
MISLBF


WESTERN AND NORTH CENTRAL NEBRASKA HOURLY WEATHER ROUNDUP
NATIONAL WEATHER SERVICE NORTH PLATTE NE
400 PM CDT SAT MAY 23 2015

***STATIONS NOT REPORTING VARIABLES SUCH AS SKY/WEATHER OR
PRESSURE ARE PROVIDED BY THE NEBRASKA DEPARTMENT OF
ROADS...RAWS...AND APRS NETWORKS...AND ARE NOT UNDER
NATIONAL WEATHER SERVICE QUALITY CONTROL***

...OBSERVATIONS IN AND NEAR THE EASTERN PANHANDLE OF NEBRASKA...

CITY           SKY/WX    TMP DP  RH WIND       PRES   REMARKS
PINE RIDGE     CLOUDY    60  51  72 E14       29.99F
CHADRON        LGT RAIN  59  54  83 NE10      29.98F
ALLIANCE       CLOUDY    54  53  97 SE15      29.98F FOG
SIDNEY         TSTM      55  52  89 NE10G29   29.92F FOG
WHITECLAY        N/A     60  51  69 E9          N/A
BIG SPRINGS      N/A     65  56  74 SE20        N/A
$$

...OBSERVATIONS IN NORTH CENTRAL NEBRASKA...

CITY           SKY/WX    TMP DP  RH WIND       PRES   REMARKS
VALENTINE      CLOUDY    59  53  80 SE15      30.05F
THEDFORD       CLOUDY    56  55  95 SE12      30.05F
AINSWORTH      CLOUDY    57  55  93 SE9       30.07F
O`NEILL        CLOUDY    59  55  87 SE8       30.09F
ORD            CLOUDY    58  53  84 SE8       30.06F
BROKEN BOW     LGT RAIN  58  54  86 SE9       30.05S
BROWNLEE         N/A     58  55  91 E14         N/A
VALENTINE NWR    N/A     55  55  99 SE12        N/A
SPRINGVIEW       N/A     58  53  84 SE8         N/A
BREWSTER         N/A     57  56  97 SE7         N/A
ROSE             N/A     56  56  99 E8          N/A
NEWPORT          N/A     57  54  89 SE10        N/A
SARGENT          N/A     57  55  93 CALM        N/A
COMSTOCK         N/A     61  59  96 SE8         N/A
EWING            N/A     59  56  88 E3          N/A
$$

...OBSERVATIONS IN SOUTHWEST NEBRASKA AND FAR NORTHEAST COLORADO...

CITY           SKY/WX    TMP DP  RH WIND       PRES   REMARKS
WRAY           CLOUDY    65  52  63 SE15G23   29.94F
IMPERIAL       CLOUDY    62  53  72 SE12      29.96F
OGALLALA       PTSUNNY   64  55  74 SE14      29.97F
NORTH PLATTE   CLOUDY    61  55  81 E16       30.01F
MCCOOK         PTSUNNY   68  53  58 SE15G25   29.96F
LEXINGTON      CLOUDY    59  57  95 SE7       30.03F
PAXTON           N/A     60  56  87 E12         N/A
GOTHENBURG       N/A     58  54  86 E9          N/A
CALLAWAY         N/A     58  58 100 E12         N/A
$$

...NORTH PLATTE AREA...

CITY           SKY/WX    TMP DP  RH WIND       PRES   REMARKS
AIRPORT        CLOUDY    61  55  81 E16       30.01F
DOWNTOWN         N/A     62  56  82 E5G12       N/A
$$

...SOME WEATHER OBSERVATIONS FROM AROUND THE REGION...

CITY           SKY/WX    TMP DP  RH WIND       PRES   REMARKS
DENVER         CLOUDY    56  46  69 NW12      29.93F
LARAMIE        CLOUDY    55  41  59 E10       29.95F
CHEYENNE       CLOUDY    54  43  66 VRB3      29.96F
SCOTTSBLUFF    CLOUDY    57  54  89 E15       29.95F
RAPID CITY     CLOUDY    56  49  77 SE12      30.03F
PIERRE         CLOUDY    61  53  75 SE8       30.07S
WINNER         CLOUDY    62  54  74 SE15      30.07F
SIOUX FALLS    CLOUDY    66  52  60 S8        30.11F
OMAHA          CLOUDY    65  57  75 S8        30.12F
GRAND ISLAND   CLOUDY    60  55  83 SE10      30.08F
KANSAS CITY    CLOUDY    67  60  78 SE16      30.13F
WICHITA        TSTM      59  57  93 NE14      30.03F FOG
HAYS           CLOUDY    61  52  72 E14       29.99S
LIBERAL        CLOUDY    63  55  77 SE13      29.95F
GOODLAND       PTSUNNY   68  53  58 SE16G23   29.92F
$$



USA.gov is the U.S. government's official web portal to all federal, state and local government web resources and services.